Time,TemperatureF,DewpointF,PressureIn,WindDirection,WindDirectionDegrees,WindSpeedMPH,WindSpeedGustMPH,Humidity,HourlyPrecipIn,Conditions,Clouds,dailyrainin,SoftwareType,DateUTC
2013-01-24 00:02:00,50.0,34.0,-100.00,SE,141,5.0,10.0,55,-99.99,,,-99.99,,2013-01-24 08:02:00,
2013-01-24 00:12:00,49.0,34.0,-100.00,SSE,150,4.0,7.0,56,-99.99,,,-99.99,,2013-01-24 08:12:00,
2013-01-24 00:22:00,49.0,34.0,-100.00,SSE,150,4.0,7.0,57,-99.99,,,-99.99,,2013-01-24 08:22:00,
2013-01-24 00:32:00,49.0,33.0,-100.00,SE,145,5.0,9.0,54,-99.99,,,-99.99,,2013-01-24 08:32:00,
2013-01-24 00:42:00,49.0,34.0,-100.00,SSE,156,4.0,8.0,55,-99.99,,,-99.99,,2013-01-24 08:42:00,
2013-01-24 00:52:00,49.0,33.0,-100.00,SSE,166,5.0,9.0,53,-99.99,,,-99.99,,2013-01-24 08:52:00,
2013-01-24 01:02:00,49.0,33.0,-100.00,South,183,6.0,10.0,53,-99.99,,,-99.99,,2013-01-24 09:02:00,
2013-01-24 01:12:00,49.0,32.0,-100.00,South,182,6.0,8.0,51,-99.99,,,-99.99,,2013-01-24 09:12:00,
2013-01-24 01:22:00,49.0,31.0,-100.00,South,183,6.0,12.0,49,-99.99,,,-99.99,,2013-01-24 09:22:00,
2013-01-24 01:32:00,49.0,30.0,-100.00,South,186,6.0,11.0,48,-99.99,,,-99.99,,2013-01-24 09:32:00,
2013-01-24 01:42:00,49.0,30.0,-100.00,SSW,193,7.0,12.0,47,-99.99,,,-99.99,,2013-01-24 09:42:00,
2013-01-24 01:52:00,49.0,30.0,-100.00,SSW,193,7.0,12.0,47,-99.99,,,-99.99,,2013-01-24 09:52:00,
2013-01-24 02:02:00,49.0,30.0,-100.00,South,171,8.0,12.0,48,-99.99,,,-99.99,,2013-01-24 10:02:00,
2013-01-24 02:12:00,49.0,32.0,-100.00,SSE,156,7.0,16.0,52,-99.99,,,-99.99,,2013-01-24 10:12:00,
2013-01-24 02:22:00,48.0,32.0,-100.00,SSE,152,6.0,11.0,54,-99.99,,,-99.99,,2013-01-24 10:22:00,
2013-01-24 02:32:00,47.0,33.0,-100.00,SSE,157,6.0,11.0,57,-99.99,,,-99.99,,2013-01-24 10:32:00,
2013-01-24 02:42:00,47.0,34.0,-100.00,SSE,156,6.0,9.0,60,-99.99,,,-99.99,,2013-01-24 10:42:00,
2013-01-24 02:52:00,47.0,35.0,-100.00,SSE,164,7.0,10.0,63,-99.99,,,-99.99,,2013-01-24 10:52:00,
2013-01-24 03:02:00,46.0,36.0,-100.00,SSE,160,6.0,11.0,67,-99.99,,,-99.99,,2013-01-24 11:02:00,
2013-01-24 03:12:00,46.0,36.0,-100.00,SSE,161,6.0,9.0,68,-99.99,,,-99.99,,2013-01-24 11:12:00,
2013-01-24 03:22:00,47.0,36.0,-100.00,SSE,157,6.0,11.0,66,-99.99,,,-99.99,,2013-01-24 11:22:00,
2013-01-24 03:32:00,47.0,36.0,-100.00,SE,140,6.0,10.0,65,-99.99,,,-99.99,,2013-01-24 11:32:00,
2013-01-24 03:42:00,47.0,36.0,-100.00,SE,146,6.0,10.0,65,-99.99,,,-99.99,,2013-01-24 11:42:00,
2013-01-24 03:52:00,47.0,36.0,-100.00,SE,146,5.0,9.0,65,-99.99,,,-99.99,,2013-01-24 11:52:00,
2013-01-24 04:03:00,48.0,37.0,-100.00,SSE,147,6.0,10.0,65,-99.99,,,-99.99,,2013-01-24 12:03:00,
2013-01-24 04:12:00,48.0,38.0,-100.00,SE,143,5.0,8.0,67,-99.99,,,-99.99,,2013-01-24 12:12:00,
2013-01-24 04:22:00,48.0,38.0,-100.00,SE,143,6.0,9.0,69,-99.99,,,-99.99,,2013-01-24 12:22:00,
2013-01-24 04:32:00,48.0,39.0,-100.00,SSE,147,6.0,9.0,72,-99.99,,,-99.99,,2013-01-24 12:32:00,
2013-01-24 04:42:00,49.0,41.0,-100.00,SSE,152,5.0,10.0,73,-99.99,,,-99.99,,2013-01-24 12:42:00,
2013-01-24 04:52:00,49.0,41.0,-100.00,SSE,149,6.0,11.0,73,-99.99,,,-99.99,,2013-01-24 12:52:00,
2013-01-24 05:02:00,50.0,42.0,-100.00,SSE,150,5.0,8.0,74,-99.99,,,-99.99,,2013-01-24 13:02:00,
2013-01-24 05:12:00,50.0,42.0,-100.00,SSE,157,6.0,11.0,74,-99.99,,,-99.99,,2013-01-24 13:12:00,
2013-01-24 05:22:00,50.0,42.0,-100.00,South,169,8.0,12.0,75,-99.99,,,-99.99,,2013-01-24 13:22:00,
2013-01-24 05:32:00,50.0,43.0,-100.00,SSE,162,8.0,14.0,77,-99.99,,,-99.99,,2013-01-24 13:32:00,
2013-01-24 05:42:00,50.0,43.0,-100.00,SSE,162,8.0,14.0,77,-99.99,,,-99.99,,2013-01-24 13:42:00,
2013-01-24 05:52:00,47.0,44.0,-100.00,SSE,152,6.0,12.0,88,-99.99,,,-99.99,,2013-01-24 13:52:00,
2013-01-24 06:02:00,47.0,45.0,-100.00,SE,143,4.0,8.0,91,-99.99,,,-99.99,,2013-01-24 14:02:00,
2013-01-24 06:12:00,47.0,45.0,-100.00,SE,143,4.0,8.0,91,-99.99,,,-99.99,,2013-01-24 14:12:00,
2013-01-24 06:22:00,46.0,44.0,-100.00,South,184,8.0,13.0,91,-99.99,,,-99.99,,2013-01-24 14:22:00,
2013-01-24 06:32:00,45.0,43.0,-100.00,SSW,202,5.0,10.0,94,-99.99,,,-99.99,,2013-01-24 14:32:00,
2013-01-24 06:43:00,45.0,44.0,-100.00,South,175,7.0,12.0,95,-99.99,,,-99.99,,2013-01-24 14:43:00,
2013-01-24 06:53:00,45.0,43.0,-100.00,South,169,7.0,11.0,94,-99.99,,,-99.99,,2013-01-24 14:53:00,
2013-01-24 07:02:00,45.0,43.0,-100.00,South,191,5.0,8.0,94,-99.99,,,-99.99,,2013-01-24 15:02:00,
2013-01-24 07:12:00,45.0,44.0,-100.00,SE,134,3.0,6.0,95,-99.99,,,-99.99,,2013-01-24 15:12:00,
2013-01-24 07:22:00,45.0,44.0,-100.00,SE,130,1.0,3.0,95,-99.99,,,-99.99,,2013-01-24 15:22:00,
2013-01-24 07:32:00,45.0,44.0,-100.00,East,98,1.0,3.0,95,-99.99,,,-99.99,,2013-01-24 15:32:00,
2013-01-24 07:42:00,45.0,44.0,-100.00,East,98,1.0,3.0,95,-99.99,,,-99.99,,2013-01-24 15:42:00,
2013-01-24 07:52:00,45.0,44.0,-100.00,SE,141,3.0,6.0,95,-99.99,,,-99.99,,2013-01-24 15:52:00,
2013-01-24 08:02:00,45.0,44.0,-100.00,SSE,152,2.0,4.0,95,-99.99,,,-99.99,,2013-01-24 16:02:00,
2013-01-24 08:12:00,45.0,44.0,-100.00,South,178,2.0,4.0,95,-99.99,,,-99.99,,2013-01-24 16:12:00,
2013-01-24 08:22:00,45.0,44.0,-100.00,South,178,4.0,5.0,96,-99.99,,,-99.99,,2013-01-24 16:22:00,
2013-01-24 08:33:00,45.0,44.0,-100.00,South,179,4.0,9.0,96,-99.99,,,-99.99,,2013-01-24 16:33:00,
2013-01-24 08:42:00,45.0,44.0,-100.00,South,169,4.0,7.0,96,-99.99,,,-99.99,,2013-01-24 16:42:00,
2013-01-24 09:01:00,46.0,45.0,-100.00,SSE,160,6.0,9.0,96,-99.99,,,-99.99,,2013-01-24 17:01:00,
2013-01-24 09:11:00,46.0,45.0,-100.00,SSE,163,7.0,11.0,96,-99.99,,,-99.99,,2013-01-24 17:11:00,
2013-01-24 09:21:00,46.0,45.0,-100.00,SSE,163,7.0,11.0,96,-99.99,,,-99.99,,2013-01-24 17:21:00,
2013-01-24 09:31:00,47.0,46.0,-100.00,South,182,6.0,10.0,96,-99.99,,,-99.99,,2013-01-24 17:31:00,
2013-01-24 09:42:00,47.0,46.0,-100.00,South,186,6.0,13.0,95,-99.99,,,-99.99,,2013-01-24 17:42:00,
2013-01-24 09:52:00,47.0,46.0,-100.00,South,179,6.0,11.0,95,-99.99,,,-99.99,,2013-01-24 17:52:00,
2013-01-24 10:01:00,47.0,45.0,-100.00,South,179,5.0,7.0,94,-99.99,,,-99.99,,2013-01-24 18:01:00,
2013-01-24 10:11:00,48.0,46.0,-100.00,SSW,206,4.0,8.0,94,-99.99,,,-99.99,,2013-01-24 18:11:00,
2013-01-24 10:22:00,48.0,46.0,-100.00,SSW,206,4.0,8.0,94,-99.99,,,-99.99,,2013-01-24 18:22:00,
2013-01-24 10:32:00,47.0,46.0,-100.00,SSE,165,4.0,7.0,95,-99.99,,,-99.99,,2013-01-24 18:32:00,
2013-01-24 10:42:00,47.0,46.0,-100.00,SSE,163,5.0,8.0,95,-99.99,,,-99.99,,2013-01-24 18:42:00,
2013-01-24 10:52:00,47.0,46.0,-100.00,South,171,6.0,9.0,95,-99.99,,,-99.99,,2013-01-24 18:52:00,
2013-01-24 11:01:00,47.0,46.0,-100.00,South,188,5.0,9.0,95,-99.99,,,-99.99,,2013-01-24 19:01:00,
2013-01-24 11:12:00,48.0,47.0,-100.00,South,182,5.0,8.0,96,-99.99,,,-99.99,,2013-01-24 19:12:00,
2013-01-24 11:21:00,48.0,47.0,-100.00,South,190,6.0,9.0,96,-99.99,,,-99.99,,2013-01-24 19:21:00,
2013-01-24 11:32:00,47.0,46.0,-100.00,South,181,8.0,11.0,97,-99.99,,,-99.99,,2013-01-24 19:32:00,
2013-01-24 11:42:00,47.0,46.0,-100.00,South,180,7.0,11.0,97,-99.99,,,-99.99,,2013-01-24 19:42:00,
2013-01-24 11:51:00,48.0,47.0,-100.00,South,189,5.0,9.0,97,-99.99,,,-99.99,,2013-01-24 19:51:00,
2013-01-24 12:01:00,48.0,47.0,-100.00,South,189,5.0,9.0,97,-99.99,,,-99.99,,2013-01-24 20:01:00,
2013-01-24 12:11:00,48.0,47.0,-100.00,South,181,8.0,13.0,97,-99.99,,,-99.99,,2013-01-24 20:11:00,
2013-01-24 12:22:00,48.0,47.0,-100.00,South,189,6.0,9.0,97,-99.99,,,-99.99,,2013-01-24 20:22:00,
2013-01-24 12:32:00,49.0,48.0,-100.00,South,171,3.0,7.0,97,-99.99,,,-99.99,,2013-01-24 20:32:00,
2013-01-24 12:42:00,49.0,48.0,-100.00,South,171,3.0,7.0,97,-99.99,,,-99.99,,2013-01-24 20:42:00,
2013-01-24 12:52:00,50.0,49.0,-100.00,ENE,72,1.0,3.0,95,-99.99,,,-99.99,,2013-01-24 20:52:00,
2013-01-24 13:00:00,53.0,49.0,-100.00,NE,42,1.0,3.0,86,-99.99,,,-99.99,,2013-01-24 21:00:00,
2013-01-24 13:02:00,52.0,49.0,-100.00,NW,321,1.0,3.0,89,-99.99,,,-99.99,,2013-01-24 21:02:00,
2013-01-24 13:11:00,52.0,49.0,-100.00,NW,321,1.0,3.0,89,-99.99,,,-99.99,,2013-01-24 21:11:00,
2013-01-24 13:22:00,52.0,48.0,-100.00,NE,42,2.0,3.0,87,-99.99,,,-99.99,,2013-01-24 21:22:00,
2013-01-24 13:32:00,52.0,48.0,-100.00,NE,42,2.0,3.0,87,-99.99,,,-99.99,,2013-01-24 21:32:00,
2013-01-24 13:42:00,53.0,49.0,-100.00,NE,42,1.0,3.0,86,-99.99,,,-99.99,,2013-01-24 21:42:00,
2013-01-24 13:52:00,53.0,49.0,-100.00,NE,42,1.0,3.0,86,-99.99,,,-99.99,,2013-01-24 21:52:00,
2013-01-24 14:12:00,52.0,49.0,-100.00,WSW,237,3.0,5.0,90,-99.99,,,-99.99,,2013-01-24 22:12:00,
2013-01-24 14:22:00,52.0,50.0,-100.00,SSW,205,2.0,3.0,92,-99.99,,,-99.99,,2013-01-24 22:22:00,
2013-01-24 14:32:00,53.0,50.0,-100.00,East,100,1.0,3.0,89,-99.99,,,-99.99,,2013-01-24 22:32:00,
2013-01-24 14:42:00,53.0,49.0,-100.00,South,191,1.0,3.0,87,-99.99,,,-99.99,,2013-01-24 22:42:00,
2013-01-24 14:52:00,53.0,49.0,-100.00,South,191,1.0,3.0,87,-99.99,,,-99.99,,2013-01-24 22:52:00,
2013-01-24 15:01:00,53.0,49.0,-100.00,WNW,300,1.0,3.0,85,-99.99,,,-99.99,,2013-01-24 23:01:00,
2013-01-24 15:11:00,54.0,49.0,-100.00,WNW,291,2.0,4.0,84,-99.99,,,-99.99,,2013-01-24 23:11:00,
2013-01-24 15:21:00,54.0,49.0,-100.00,WNW,291,2.0,4.0,84,-99.99,,,-99.99,,2013-01-24 23:21:00,
2013-01-24 15:32:00,54.0,47.0,-100.00,NNW,344,4.0,6.0,77,-99.99,,,-99.99,,2013-01-24 23:32:00,
2013-01-24 15:42:00,54.0,47.0,-100.00,NNW,344,4.0,6.0,77,-99.99,,,-99.99,,2013-01-24 23:42:00,
2013-01-24 15:52:00,54.0,48.0,-100.00,West,271,2.0,6.0,80,-99.99,,,-99.99,,2013-01-24 23:52:00,
2013-01-24 16:01:00,54.0,49.0,-100.00,WSW,240,3.0,6.0,84,-99.99,,,-99.99,,2013-01-25 00:01:00,
2013-01-24 16:12:00,53.0,49.0,-100.00,SSW,208,4.0,8.0,87,-99.99,,,-99.99,,2013-01-25 00:12:00,
2013-01-24 16:21:00,53.0,50.0,-100.00,WSW,242,2.0,4.0,90,-99.99,,,-99.99,,2013-01-25 00:21:00,
2013-01-24 16:32:00,53.0,50.0,-100.00,WSW,242,2.0,4.0,90,-99.99,,,-99.99,,2013-01-25 00:32:00,
2013-01-24 16:41:00,53.0,50.0,-100.00,NW,305,1.0,4.0,90,-99.99,,,-99.99,,2013-01-25 00:41:00,
2013-01-24 16:51:00,52.0,49.0,-100.00,NW,308,2.0,4.0,91,-99.99,,,-99.99,,2013-01-25 00:51:00,
2013-01-24 17:01:00,52.0,49.0,-100.00,NNW,343,1.0,2.0,90,-99.99,,,-99.99,,2013-01-25 01:01:00,
2013-01-24 17:11:00,52.0,49.0,-100.00,South,176,2.0,4.0,89,-99.99,,,-99.99,,2013-01-25 01:11:00,
2013-01-24 17:21:00,51.0,48.0,-100.00,SE,141,2.0,5.0,90,-99.99,,,-99.99,,2013-01-25 01:21:00,
2013-01-24 17:31:00,51.0,48.0,-100.00,SE,143,3.0,5.0,90,-99.99,,,-99.99,,2013-01-25 01:31:00,
2013-01-24 17:41:00,50.0,47.0,-100.00,ESE,102,3.0,5.0,91,-99.99,,,-99.99,,2013-01-25 01:41:00,
2013-01-24 17:51:00,50.0,47.0,-100.00,ESE,104,2.0,4.0,91,-99.99,,,-99.99,,2013-01-25 01:51:00,
2013-01-24 18:01:00,50.0,47.0,-100.00,SSE,152,2.0,4.0,91,-99.99,,,-99.99,,2013-01-25 02:01:00,
2013-01-24 18:11:00,50.0,47.0,-100.00,SSE,152,2.0,4.0,91,-99.99,,,-99.99,,2013-01-25 02:11:00,
2013-01-24 18:22:00,50.0,47.0,-100.00,East,91,2.0,5.0,91,-99.99,,,-99.99,,2013-01-25 02:22:00,
2013-01-24 18:32:00,50.0,47.0,-100.00,East,80,2.0,4.0,90,-99.99,,,-99.99,,2013-01-25 02:32:00,
2013-01-24 18:42:00,49.0,46.0,-100.00,East,86,2.0,4.0,90,-99.99,,,-99.99,,2013-01-25 02:42:00,
2013-01-24 18:52:00,49.0,46.0,-100.00,NE,34,1.0,2.0,89,-99.99,,,-99.99,,2013-01-25 02:52:00,
2013-01-24 19:01:00,49.0,45.0,-100.00,SE,134,2.0,5.0,87,-99.99,,,-99.99,,2013-01-25 03:01:00,
2013-01-24 19:12:00,50.0,46.0,-100.00,SE,131,3.0,8.0,85,-99.99,,,-99.99,,2013-01-25 03:12:00,
2013-01-24 19:21:00,50.0,46.0,-100.00,SE,131,3.0,8.0,85,-99.99,,,-99.99,,2013-01-25 03:21:00,
2013-01-24 19:32:00,50.0,46.0,-100.00,SSE,154,1.0,4.0,85,-99.99,,,-99.99,,2013-01-25 03:32:00,
2013-01-24 19:41:00,50.0,46.0,-100.00,SSE,147,3.0,6.0,85,-99.99,,,-99.99,,2013-01-25 03:41:00,
2013-01-24 19:52:00,51.0,46.0,-100.00,SSE,162,3.0,7.0,83,-99.99,,,-99.99,,2013-01-25 03:52:00,
2013-01-24 20:01:00,51.0,46.0,-100.00,SE,142,3.0,5.0,82,-99.99,,,-99.99,,2013-01-25 04:01:00,
2013-01-24 20:11:00,52.0,46.0,-100.00,SE,124,3.0,7.0,80,-99.99,,,-99.99,,2013-01-25 04:11:00,
2013-01-24 20:22:00,52.0,45.0,-100.00,SSE,148,2.0,5.0,78,-99.99,,,-99.99,,2013-01-25 04:22:00,
2013-01-24 20:31:00,52.0,45.0,-100.00,ESE,120,1.0,4.0,77,-99.99,,,-99.99,,2013-01-25 04:31:00,
2013-01-24 20:41:00,52.0,45.0,-100.00,West,273,1.0,3.0,78,-99.99,,,-99.99,,2013-01-25 04:41:00,
2013-01-24 20:51:00,50.0,45.0,-100.00,WNW,284,1.0,3.0,83,-99.99,,,-99.99,,2013-01-25 04:51:00,
2013-01-24 21:03:00,50.0,45.0,-100.00,SSW,198,0.0,1.0,82,-99.99,,,-99.99,,2013-01-25 05:03:00,
2013-01-24 21:12:00,50.0,45.0,-100.00,NE,36,1.0,3.0,84,-99.99,,,-99.99,,2013-01-25 05:12:00,
2013-01-24 21:22:00,50.0,45.0,-100.00,WNW,283,2.0,4.0,83,-99.99,,,-99.99,,2013-01-25 05:22:00,
2013-01-24 21:32:00,49.0,44.0,-100.00,West,267,1.0,3.0,84,-99.99,,,-99.99,,2013-01-25 05:32:00,
2013-01-24 21:42:00,49.0,44.0,-100.00,West,281,1.0,4.0,84,-99.99,,,-99.99,,2013-01-25 05:42:00,
2013-01-24 21:52:00,49.0,45.0,-100.00,West,264,0.0,1.0,85,-99.99,,,-99.99,,2013-01-25 05:52:00,
2013-01-24 22:01:00,49.0,45.0,-100.00,NW,325,0.0,2.0,86,-99.99,,,-99.99,,2013-01-25 06:01:00,
2013-01-24 22:11:00,49.0,45.0,-100.00,WSW,256,1.0,3.0,86,-99.99,,,-99.99,,2013-01-25 06:11:00,
2013-01-24 22:21:00,49.0,45.0,-100.00,WSW,256,1.0,3.0,86,-99.99,,,-99.99,,2013-01-25 06:21:00,
2013-01-24 22:31:00,51.0,45.0,-100.00,South,179,4.0,8.0,80,-99.99,,,-99.99,,2013-01-25 06:31:00,
2013-01-24 22:41:00,51.0,45.0,-100.00,South,173,4.0,7.0,79,-99.99,,,-99.99,,2013-01-25 06:41:00,
2013-01-24 22:51:00,51.0,45.0,-100.00,SSE,163,4.0,7.0,79,-99.99,,,-99.99,,2013-01-25 06:51:00,
2013-01-24 23:01:00,51.0,45.0,-100.00,SE,136,3.0,8.0,79,-99.99,,,-99.99,,2013-01-25 07:01:00,
2013-01-24 23:11:00,51.0,45.0,-100.00,ESE,120,4.0,8.0,79,-99.99,,,-99.99,,2013-01-25 07:11:00,
2013-01-24 23:21:00,51.0,44.0,-100.00,ESE,111,5.0,8.0,78,-99.99,,,-99.99,,2013-01-25 07:21:00,
2013-01-24 23:31:00,51.0,44.0,-100.00,ESE,114,3.0,6.0,77,-99.99,,,-99.99,,2013-01-25 07:31:00,
2013-01-24 23:41:00,51.0,44.0,-100.00,SE,129,3.0,6.0,78,-99.99,,,-99.99,,2013-01-25 07:41:00,
2013-01-24 23:51:00,52.0,45.0,-100.00,ESE,117,3.0,9.0,77,-99.99,,,-99.99,,2013-01-25 07:51:00,